GW0760 Weather Reports


Display with metric or nautical units.
time (UTC)temp
F
wind
direction
speed
MPH
gust
MPH
rain 1hr
in
rain 24hr
in
rain mn
in
humidity
%
barometer
mb
20240223064002 34 207 1.0 2.0 0.00 0.00 0.00 88 1003.1
20240223063502 34 201 1.0 2.0 0.00 0.00 0.00 88 1003.5
20240223063002 34 193 1.0 2.0 0.00 0.00 0.00 87 1003.1
20240223062502 35 207 1.0 3.0 0.00 0.00 0.00 87 1003.5
20240223062023 35 202 2.0 7.0 0.00 0.00 0.00 88 1003.3
20240223061503 34 198 1.0 7.0 0.00 0.00 0.00 88 1003.5
20240223061002 34 201 1.0 4.0 0.00 0.00 0.00 88 1003.5
20240223060502 34 205 1.0 4.0 0.00 0.00 0.00 88 1003.4
20240223060002 34 205 2.0 4.0 0.00 0.00 0.00 88 1003.5
20240223055502 34 205 2.0 6.0 0.00 0.00 0.00 88 1003.6
20240223055002 34 210 2.0 6.0 0.00 0.00 0.00 89 1003.7
20240223054502 34 175 2.0 6.0 0.00 0.00 0.00 89 1003.5
20240223054002 34 150 1.0 6.0 0.00 0.00 0.00 89 1003.7
20240223053502 34 212 1.0 6.0 0.00 0.00 0.00 89 1003.8
20240223053002 33 195 1.0 3.0 0.00 0.00 0.00 89 1003.9
20240223052502 33 157 1.0 3.0 0.00 0.00 0.00 89 1003.9
20240223052002 33 165 1.0 2.0 0.00 0.00 0.00 89 1004.0
20240223051502 33 182 1.0 2.0 0.00 0.00 0.00 89 1004.0
20240223051023 33 177 1.0 2.0 0.00 0.00 0.00 89 1004.2
20240223050502 33 148 1.0 2.0 0.00 0.00 0.00 88 1004.1
20240223050002 33 125 0.0 1.0 0.00 0.00 0.00 88 1004.1
20240223045502 33 119 0.0 1.0 0.00 0.00 0.00 88 1004.5
20240223045002 33 139 0.0 1.0 0.00 0.00 0.00 88 1004.5
20240223044502 33 170 0.0 1.0 0.00 0.00 0.00 87 1004.4
20240223044002 33 177 0.0 1.0 0.00 0.00 0.00 85 1004.3
20240223043523 33 181 1.0 2.0 0.00 0.00 0.00 85 1004.6
20240223043002 34 184 1.0 2.0 0.00 0.00 0.00 85 1004.9
20240223042502 34 191 1.0 3.0 0.00 0.00 0.00 84 1004.6
20240223042002 34 197 2.0 7.0 0.00 0.00 0.00 84 1004.7
20240223041523 34 185 1.0 7.0 0.00 0.00 0.00 84 1005.0
20240223041002 34 172 1.0 3.0 0.00 0.00 0.00 83 1005.1
20240223040502 34 176 1.0 3.0 0.00 0.00 0.00 83 1005.0
20240223040002 33 168 1.0 3.0 0.00 0.00 0.00 83 1005.3
20240223035523 33 160 1.0 3.0 0.00 0.00 0.00 84 1005.4
20240223035002 33 180 1.0 3.0 0.00 0.00 0.00 84 1005.4
20240223034502 33 203 1.0 3.0 0.00 0.00 0.00 84 1005.4
20240223034002 33 202 1.0 2.0 0.00 0.00 0.00 85 1005.7
20240223033523 33 202 1.0 2.0 0.00 0.00 0.00 85 1005.7
20240223033002 32 204 1.0 2.0 0.00 0.00 0.00 85 1005.6
20240223032502 32 204 0.0 2.0 0.00 0.00 0.00 85 1005.3
20240223032002 32 204 0.0 2.0 0.00 0.00 0.00 85 1005.5
20240223031524 32 203 0.0 1.0 0.00 0.00 0.00 85 1005.3
20240223031002 32 203 0.0 1.0 0.00 0.00 0.00 85 1005.3
20240223030502 32 203 0.0 1.0 0.00 0.00 0.00 85 1005.4
20240223030023 32 203 0.0 1.0 0.00 0.00 0.00 85 1005.5
20240223025502 32 203 0.0 1.0 0.00 0.00 0.00 85 1005.3
20240223025023 32 203 0.0 1.0 0.00 0.00 0.00 85 1005.5
20240223024502 32 203 0.0 1.0 0.00 0.00 0.00 85 1005.5
20240223024002 32 203 0.0 1.0 0.00 0.00 0.00 85 1005.6
20240223023523 32 204 0.0 1.0 0.00 0.00 0.00 84 1005.7
20240223023002 33 203 0.0 1.0 0.00 0.00 0.00 85 1005.9
20240223022502 32 203 0.0 1.0 0.00 0.00 0.00 85 1006.0
20240223022002 32 202 0.0 1.0 0.00 0.00 0.00 85 1006.2
20240223021502 32 202 0.0 1.0 0.00 0.00 0.00 86 1006.0
20240223021023 32 202 0.0 1.0 0.00 0.00 0.00 86 1006.4
20240223020523 32 202 0.0 1.0 0.00 0.00 0.00 86 1006.1
20240223020002 31 202 1.0 2.0 0.00 0.00 0.00 86 1006.4
20240223015502 31 201 0.0 2.0 0.00 0.00 0.00 86 1006.4
20240223015002 31 201 0.0 1.0 0.00 0.00 0.00 86 1006.3
20240223014502 31 201 0.0 1.0 0.00 0.00 0.00 86 1006.3
20240223014002 31 201 0.0 1.0 0.00 0.00 0.00 86 1006.2
20240223013502 31 201 0.0 1.0 0.00 0.00 0.00 86 1006.4
20240223013002 31 201 0.0 1.0 0.00 0.00 0.00 86 1006.3
20240223012502 31 201 0.0 1.0 0.00 0.00 0.00 86 1006.1
20240223012023 31 201 0.0 1.0 0.00 0.00 0.00 86 1006.4
20240223011523 32 201 0.0 1.0 0.00 0.00 0.00 86 1006.5
20240223011002 32 201 0.0 1.0 0.00 0.00 0.00 85 1006.4
20240223010502 32 201 0.0 1.0 0.00 0.00 0.00 85 1006.8
20240223010002 32 202 0.0 1.0 0.00 0.00 0.00 85 1006.9
20240223005502 32 202 0.0 1.0 0.00 0.00 0.00 85 1006.8
20240223005002 33 202 0.0 1.0 0.00 0.00 0.00 84 1006.9
20240223004502 33 203 0.0 1.0 0.00 0.00 0.00 84 1006.8
20240223004002 33 203 0.0 1.0 0.00 0.00 0.00 84 1006.8
20240223003523 33 203 0.0 1.0 0.00 0.00 0.00 84 1007.2
20240223003002 33 203 0.0 1.0 0.00 0.00 0.00 84 1006.8
20240223002502 33 203 0.0 1.0 0.00 0.00 0.00 84 1007.2
20240223002002 33 203 0.0 1.0 0.00 0.00 0.00 84 1007.0
20240223001524 33 204 0.0 1.0 0.00 0.00 0.00 83 1007.0
20240223001002 33 205 0.0 1.0 0.00 0.00 0.00 84 1007.0
20240223000502 33 205 0.0 1.0 0.00 0.00 0.00 84 1007.1
20240223000023 33 205 0.0 1.0 0.00 0.00 0.00 84 1007.2
20240222235502 33 205 0.0 1.0 0.00 0.00 0.00 84 1007.3
20240222235002 33 205 1.0 1.0 0.00 0.00 0.00 84 1007.1
20240222234523 33 205 1.0 1.0 0.00 0.00 0.00 84 1007.3
20240222234023 33 205 0.0 1.0 0.00 0.00 0.00 83 1007.6
20240222233523 33 205 0.0 1.0 0.00 0.00 0.00 82 1007.7
20240222233002 33 205 0.0 1.0 0.00 0.00 0.00 82 1007.8
20240222232523 33 205 0.0 1.0 0.00 0.00 0.00 82 1007.7
20240222232002 33 205 0.0 1.0 0.00 0.00 0.00 81 1007.7
20240222231502 33 206 0.0 1.0 0.00 0.00 0.00 82 1007.4
20240222231002 34 206 0.0 1.0 0.00 0.00 0.00 82 1007.4
20240222230502 34 206 0.0 1.0 0.00 0.00 0.00 81 1007.7
20240222230023 34 206 0.0 1.0 0.00 0.00 0.00 80 1007.8
20240222225502 34 206 0.0 1.0 0.00 0.00 0.00 78 1007.5
20240222225023 35 206 0.0 1.0 0.00 0.00 0.00 77 1007.6
20240222224502 35 206 0.0 1.0 0.00 0.00 0.00 76 1007.8
20240222224002 35 206 0.0 1.0 0.00 0.00 0.00 75 1007.7
20240222223502 35 206 0.0 1.0 0.00 0.00 0.00 74 1007.6
20240222223002 35 206 0.0 1.0 0.00 0.00 0.00 73 1007.7
20240222222502 36 206 0.0 1.0 0.00 0.00 0.00 73 1007.7
20240222222002 36 206 0.0 1.0 0.00 0.00 0.00 72 1007.7
20240222221502 36 206 0.0 1.0 0.00 0.00 0.00 71 1008.0
20240222221002 36 206 0.0 1.0 0.00 0.00 0.00 71 1007.9
20240222220502 37 206 0.0 1.0 0.00 0.00 0.00 70 1008.0
20240222220002 37 207 0.0 1.0 0.00 0.00 0.00 69 1008.0
20240222215502 37 207 0.0 1.0 0.00 0.00 0.00 70 1007.9
20240222215002 38 205 0.0 2.0 0.00 0.00 0.00 67 1008.0
20240222214502 38 205 0.0 2.0 0.00 0.00 0.00 67 1008.1
20240222214002 38 205 0.0 1.0 0.00 0.00 0.00 67 1008.2
20240222213502 38 205 0.0 1.0 0.00 0.00 0.00 66 1008.1
20240222213002 39 205 0.0 1.0 0.00 0.00 0.00 66 1008.6
20240222212502 39 207 0.0 1.0 0.00 0.00 0.00 66 1008.3
20240222212023 40 208 1.0 2.0 0.00 0.00 0.00 65 1008.5
20240222211502 40 252 1.0 2.0 0.00 0.00 0.00 63 1008.4
20240222211002 40 275 0.0 2.0 0.00 0.00 0.00 63 1008.5
20240222210502 40 171 0.0 2.0 0.00 0.00 0.00 63 1008.8
20240222210002 40 122 1.0 2.0 0.00 0.00 0.00 63 1008.8
20240222205502 40 85 0.0 1.0 0.00 0.00 0.00 63 1009.0
20240222205002 40 53 0.0 1.0 0.00 0.00 0.00 63 1008.7
20240222204502 40 61 0.0 1.0 0.00 0.00 0.00 63 1008.9
20240222204002 40 39 1.0 4.0 0.00 0.00 0.00 63 1009.0
20240222203502 40 179 1.0 4.0 0.00 0.00 0.00 62 1009.0
20240222203002 40 189 1.0 3.0 0.00 0.00 0.00 62 1009.3
20240222202502 41 217 1.0 3.0 0.00 0.00 0.00 62 1009.3
20240222202002 40 237 1.0 4.0 0.00 0.00 0.00 62 1009.4
20240222201502 40 225 1.0 4.0 0.00 0.00 0.00 61 1009.5
20240222201002 40 205 2.0 4.0 0.00 0.00 0.00 61 1009.4
20240222200502 41 185 2.0 4.0 0.00 0.00 0.00 61 1009.5
20240222200002 41 214 1.0 4.0 0.00 0.00 0.00 60 1009.7
20240222195523 42 227 1.0 4.0 0.00 0.00 0.00 60 1009.6
20240222195002 41 230 1.0 4.0 0.00 0.00 0.00 61 1009.8
20240222194502 41 254 1.0 4.0 0.00 0.00 0.00 61 1009.5
20240222194002 40 295 1.0 3.0 0.00 0.00 0.00 62 1009.8
20240222193502 40 166 1.0 3.0 0.00 0.00 0.00 61 1009.6
20240222193002 40 190 2.0 4.0 0.00 0.00 0.00 61 1009.7
20240222192502 40 157 2.0 4.0 0.00 0.00 0.00 61 1009.7
20240222192002 40 144 2.0 6.0 0.00 0.00 0.00 60 1009.7
20240222191502 41 176 2.0 6.0 0.00 0.00 0.00 61 1010.1
20240222191002 41 193 2.0 7.0 0.00 0.00 0.00 61 1010.1
20240222190502 40 209 2.0 7.0 0.00 0.00 0.00 60 1010.2
20240222190023 40 253 1.0 6.0 0.00 0.00 0.00 61 1009.9
20240222185502 40 225 2.0 6.0 0.00 0.00 0.00 62 1010.3
20240222185002 40 193 2.0 6.0 0.00 0.00 0.00 61 1010.5
20240222184502 40 185 1.0 4.0 0.00 0.00 0.00 61 1010.8
20240222184002 40 284 1.0 4.0 0.00 0.00 0.00 62 1010.8
20240222183502 40 270 1.0 6.0 0.00 0.00 0.00 62 1010.8
20240222183002 40 203 2.0 6.0 0.00 0.00 0.00 60 1010.7
20240222182502 40 193 2.0 4.0 0.00 0.00 0.00 61 1010.8
20240222182002 40 156 1.0 4.0 0.00 0.00 0.00 61 1011.1
20240222181523 40 227 2.0 6.0 0.00 0.00 0.00 61 1011.3
20240222181002 41 242 2.0 6.0 0.00 0.00 0.00 61 1011.2
20240222180502 41 221 1.0 6.0 0.00 0.00 0.00 60 1011.5
20240222180002 40 215 1.0 7.0 0.00 0.00 0.00 65 1011.2
20240222175502 39 182 1.0 7.0 0.00 0.00 0.00 62 1011.3
20240222175002 39 249 1.0 4.0 0.00 0.00 0.00 64 1011.5
20240222174502 39 320 1.0 4.0 0.00 0.00 0.00 64 1011.8
20240222174002 38 54 1.0 4.0 0.00 0.00 0.00 66 1012.0
20240222173523 38 147 2.0 6.0 0.00 0.00 0.00 65 1012.0
20240222173002 38 199 2.0 7.0 0.00 0.00 0.00 65 1011.8
20240222172502 38 187 2.0 7.0 0.00 0.00 0.00 65 1012.2
20240222172002 37 185 2.0 6.0 0.00 0.00 0.00 66 1012.4
20240222171502 37 207 2.0 6.0 0.00 0.00 0.00 66 1012.3
20240222171023 37 185 2.0 6.0 0.00 0.00 0.00 66 1012.5
20240222170502 37 208 1.0 6.0 0.00 0.00 0.00 66 1012.9
20240222170002 37 221 2.0 6.0 0.00 0.00 0.00 67 1012.6
20240222165523 36 229 2.0 6.0 0.00 0.00 0.00 67 1012.8
20240222165002 37 308 1.0 6.0 0.00 0.00 0.00 67 1013.0
20240222164502 36 233 2.0 6.0 0.00 0.00 0.00 68 1013.5
20240222164002 36 203 2.0 9.0 0.00 0.00 0.00 67 1013.6
20240222163502 36 189 2.0 9.0 0.00 0.00 0.00 67 1013.4
20240222163002 36 195 1.0 6.0 0.00 0.00 0.00 69 1013.5
20240222162502 36 226 2.0 7.0 0.00 0.00 0.00 68 1013.8
20240222162023 36 235 2.0 7.0 0.00 0.00 0.00 69 1014.0
20240222161502 36 199 1.0 6.0 0.00 0.00 0.00 70 1014.1
20240222161002 35 159 2.0 6.0 0.00 0.00 0.00 71 1014.1
20240222160523 35 183 1.0 4.0 0.00 0.00 0.00 69 1014.3
20240222160002 35 216 2.0 6.0 0.00 0.00 0.00 71 1014.4
20240222155502 35 212 2.0 6.0 0.00 0.00 0.00 71 1014.8
20240222155002 34 211 2.0 4.0 0.00 0.00 0.00 71 1014.7
20240222154502 34 208 2.0 4.0 0.00 0.00 0.00 71 1014.8
20240222154023 34 201 2.0 7.0 0.00 0.00 0.00 71 1014.9
20240222153502 34 211 2.0 7.0 0.00 0.00 0.00 71 1014.7
20240222153002 35 207 2.0 6.0 0.00 0.00 0.00 72 1014.7
20240222152523 34 188 1.0 6.0 0.00 0.00 0.00 73 1014.9
20240222152023 34 219 1.0 6.0 0.00 0.00 0.00 73 1015.0
20240222151523 33 215 2.0 7.0 0.00 0.00 0.00 74 1015.3
20240222151023 33 187 2.0 7.0 0.00 0.00 0.00 73 1015.3
20240222150502 33 160 2.0 6.0 0.00 0.00 0.00 75 1015.2
20240222150002 32 199 2.0 6.0 0.00 0.00 0.00 75 1015.4
20240222145502 32 205 2.0 6.0 0.00 0.00 0.00 76 1015.4
20240222145002 31 183 1.0 6.0 0.00 0.00 0.00 77 1015.4
20240222144502 31 179 2.0 6.0 0.00 0.00 0.00 77 1015.7
20240222144002 31 191 1.0 6.0 0.00 0.00 0.00 78 1015.9
20240222143502 30 235 1.0 4.0 0.00 0.00 0.00 81 1015.9
20240222143002 30 205 1.0 4.0 0.00 0.00 0.00 81 1015.9
20240222142523 29 163 1.0 4.0 0.00 0.00 0.00 81 1015.9
20240222142002 29 196 1.0 4.0 0.00 0.00 0.00 81 1016.1
20240222141502 29 205 1.0 4.0 0.00 0.00 0.00 82 1016.3
20240222141002 29 195 1.0 4.0 0.00 0.00 0.00 82 1016.5
20240222140502 29 215 1.0 6.0 0.00 0.00 0.00 84 1016.7
20240222140002 29 217 1.0 6.0 0.00 0.00 0.00 85 1016.6
20240222135502 28 182 1.0 2.0 0.00 0.00 0.00 88 1017.0
20240222135002 28 177 1.0 3.0 0.00 0.00 0.00 89 1016.7
20240222134502 27 196 2.0 4.0 0.00 0.00 0.00 90 1016.8
20240222134002 27 201 1.0 4.0 0.00 0.00 0.00 91 1017.0
20240222133502 25 197 0.0 2.0 0.00 0.00 0.00 92 1017.1
20240222133002 24 159 0.0 3.0 0.00 0.00 0.00 92 1017.4
20240222132502 23 165 0.0 3.0 0.00 0.00 0.00 92 1017.4
20240222132002 22 85 0.0 3.0 0.00 0.00 0.00 91 1017.3
20240222131502 22 31 0.0 2.0 0.00 0.00 0.00 91 1017.4
20240222131003 21 13 0.0 2.0 0.00 0.00 0.00 91 1017.5
20240222130502 21 24 0.0 2.0 0.00 0.00 0.00 91 1017.4
20240222130002 20 10 1.0 3.0 0.00 0.00 0.00 92 1017.6
20240222125502 20 4 1.0 3.0 0.00 0.00 0.00 91 1017.6
20240222125023 19 346 1.0 4.0 0.00 0.00 0.00 91 1017.6
20240222124523 19 349 1.0 4.0 0.00 0.00 0.00 91 1017.7
20240222124002 18 360 1.0 3.0 0.00 0.00 0.00 91 1017.6
20240222123502 18 359 1.0 3.0 0.00 0.00 0.00 91 1017.5
20240222123023 18 358 1.0 3.0 0.00 0.00 0.00 91 1017.7
20240222122502 18 357 0.0 2.0 0.00 0.00 0.00 91 1017.7
20240222122002 18 357 0.0 2.0 0.00 0.00 0.00 91 1017.6
20240222121502 17 0 0.0 0.0 0.00 0.00 0.00 91 1017.4
20240222121023 17 0 0.0 0.0 0.00 0.00 0.00 90 1017.6
20240222120502 17 0 0.0 0.0 0.00 0.00 0.00 90 1018.0
20240222120002 17 0 0.0 0.0 0.00 0.00 0.00 90 1018.2
20240222115502 17 0 0.0 0.0 0.00 0.00 0.00 90 1018.2
20240222115002 17 0 0.0 0.0 0.00 0.00 0.00 90 1018.4
20240222114502 17 0 0.0 0.0 0.00 0.00 0.00 91 1018.4
20240222114002 17 0 0.0 0.0 0.00 0.00 0.00 90 1018.3
20240222113503 17 0 0.0 0.0 0.00 0.00 0.00 90 1018.3
20240222113023 17 0 0.0 0.0 0.00 0.00 0.00 90 1018.8
20240222112502 17 0 0.0 0.0 0.00 0.00 0.00 90 1018.8
20240222112002 17 0 0.0 0.0 0.00 0.00 0.00 90 1018.9
20240222111502 17 0 0.0 0.0 0.00 0.00 0.00 90 1018.5
20240222111002 17 351 0.0 1.0 0.00 0.00 0.00 90 1018.4
20240222110523 18 350 0.0 2.0 0.00 0.00 0.00 90 1018.5
20240222110002 18 353 0.0 2.0 0.00 0.00 0.00 90 1018.7
20240222105502 18 355 0.0 2.0 0.00 0.00 0.00 90 1018.3
20240222105002 18 358 0.0 2.0 0.00 0.00 0.00 90 1018.9
20240222104502 18 0 0.0 0.0 0.00 0.00 0.00 90 1018.7
20240222104023 18 0 0.0 0.0 0.00 0.00 0.00 90 1018.5
20240222103523 18 0 0.0 0.0 0.00 0.00 0.00 90 1019.0
20240222103002 18 0 0.0 0.0 0.00 0.00 0.00 90 1019.1
20240222102502 18 0 0.0 0.0 0.00 0.00 0.00 90 1019.2
20240222102002 18 0 0.0 0.0 0.00 0.00 0.00 89 1019.0
20240222101502 18 0 0.0 0.0 0.00 0.00 0.00 89 1019.5
20240222101002 18 0 0.0 0.0 0.00 0.00 0.00 89 1019.6
20240222100502 18 0 0.0 0.0 0.00 0.00 0.00 89 1019.3
20240222100002 18 0 0.0 0.0 0.00 0.00 0.00 89 1019.4
20240222095503 18 0 0.0 0.0 0.00 0.00 0.00 89 1019.4
20240222095002 18 0 0.0 0.0 0.00 0.00 0.00 89 1019.1
20240222094502 19 0 0.0 0.0 0.00 0.00 0.00 90 1019.3
20240222094023 19 0 0.0 0.0 0.00 0.00 0.00 90 1019.3
20240222093502 19 0 0.0 0.0 0.00 0.00 0.00 89 1019.7
20240222093023 19 0 0.0 0.0 0.00 0.00 0.00 89 1019.5
20240222092502 19 0 0.0 0.0 0.00 0.00 0.00 89 1019.6
20240222092023 19 0 0.0 0.0 0.00 0.00 0.00 89 1019.6
20240222091502 19 0 0.0 0.0 0.00 0.00 0.00 90 1019.5
20240222091002 19 0 0.0 0.0 0.00 0.00 0.00 89 1019.6
20240222090503 19 0 0.0 0.0 0.00 0.00 0.00 89 1019.7
20240222090002 19 0 0.0 0.0 0.00 0.00 0.00 89 1019.6
20240222085502 19 0 0.0 0.0 0.00 0.00 0.00 89 1020.0
20240222085002 19 0 0.0 0.0 0.00 0.00 0.00 89 1020.1
20240222084503 19 0 0.0 0.0 0.00 0.00 0.00 89 1019.9
20240222084002 19 0 0.0 0.0 0.00 0.00 0.00 89 1019.9
20240222083502 19 0 0.0 0.0 0.00 0.00 0.00 89 1020.1
20240222083002 19 0 0.0 0.0 0.00 0.00 0.00 89 1020.3
20240222082502 19 0 0.0 0.0 0.00 0.00 0.00 89 1020.1
20240222082002 19 0 0.0 0.0 0.00 0.00 0.00 89 1020.3
20240222081502 20 0 0.0 0.0 0.00 0.00 0.00 89 1020.2
20240222081002 20 0 0.0 0.0 0.00 0.00 0.00 89 1020.4
20240222080503 20 0 0.0 0.0 0.00 0.00 0.00 89 1020.4
20240222080002 20 0 0.0 0.0 0.00 0.00 0.00 89 1020.5
20240222075502 20 0 0.0 0.0 0.00 0.00 0.00 89 1020.9
20240222075002 20 0 0.0 0.0 0.00 0.00 0.00 89 1020.8
20240222074502 20 0 0.0 0.0 0.00 0.00 0.00 89 1020.8
20240222074002 21 0 0.0 0.0 0.00 0.00 0.00 89 1021.1
20240222073502 21 0 0.0 0.0 0.00 0.00 0.00 89 1021.1
20240222073002 21 0 0.0 0.0 0.00 0.00 0.00 89 1021.2
20240222072502 21 0 0.0 0.0 0.00 0.00 0.00 89 1021.3
20240222072002 21 0 0.0 0.0 0.00 0.00 0.00 89 1021.6
20240222071502 21 0 0.0 0.0 0.00 0.00 0.00 89 1021.6
20240222071002 20 0 0.0 0.0 0.00 0.00 0.00 89 1021.5
20240222070502 20 0 0.0 0.0 0.00 0.00 0.00 89 1021.6
20240222070002 20 0 0.0 0.0 0.00 0.00 0.00 89 1021.5
20240222065502 20 0 0.0 0.0 0.00 0.00 0.00 89 1021.9
20240222065002 21 0 0.0 0.0 0.00 0.00 0.00 89 1021.7
20240222064523 21 0 0.0 0.0 0.00 0.00 0.00 89 1021.8